Content
SEND FEEDBACK

Daily
Averages
Monthly
Summary
France

BIARRITZ, FRANCE


Home > Europe > France
Elevation: 246 feet     Latitude: 43 28N     Longitude: 001 31W

WEATHER
 
SELECT A DAY
Number of Records: 191,602;   Date Range: 7/1/96 - 8/10/14
 
SHARE

PRINT THIS DATA

[ ← Previous Day ]
WEATHER ALMANAC - OCTOBER 12, 2013
[ Next Day → ]
[ °C ]   °F
Weather ElementAverageHighLow
Temperature55.1 °F64.4 °F (3:30 pm)46.4 °F (12:30 am)
Dewpoint44.8 °F53.6 °F (8:30 pm)41 °F (6:00 am)
Humidity69.6 %87 % (12:30 am)49 % (3:30 pm)
Barometer30.04 in30.06 in (12:30 am)30.01 in (7:00 am)
Wind Speed5.7 mph12.7 mph (5:30 pm)
Weather ElementAverage
Visibility6.2 mi
Wind DirectionSSE (164.9 °)

Weather ElementTotal
Precipitation---
Heating Degree Days9.6 (Base 65)
Growing Degree Days5.4 (Base 50)
Averaged from 47 records on October 12, 2013
WEATHER CONDITIONS BREAKOUT
WIND DIRECTION BREAKOUT
WEATHER BY HOUR - OCTOBER 12, 2013
[ °C ]   °F
Local TimeTemperatureDewpointHumidityBarometerVisibilityWind DirectionWind SpeedGust SpeedPrecipitationEventsConditions
12:30 AM46.4 °F42.8 °F87 %30.06 in6.2 miVariable3.5 mphPartly Cloudy
1:00 AM48.2 °F42.8 °F82 %30.06 in6.2 miVariable3.5 mphPartly Cloudy
1:30 AM46.4 °F42.8 °F87 %30.06 in6.2 miVariable3.5 mph
2:00 AM48.2 °F42.8 °F82 %30.06 in6.2 miVariable3.5 mph
2:30 AM46.4 °F42.8 °F87 %30.06 in6.2 miSSW (200°)4.6 mph
3:00 AM46.4 °F42.8 °F87 %30.06 in6.2 miSSW (210°)3.5 mph
3:30 AM46.4 °F42.8 °F87 %30.04 in6.2 miVariable3.5 mphPartly Cloudy
4:00 AM48.2 °F42.8 °F82 %30.04 in6.2 miSSW (210°)3.5 mphPartly Cloudy
4:30 AM48.2 °F42.8 °F82 %30.04 in6.2 miVariable2.3 mphPartly Cloudy
5:00 AM48.2 °F42.8 °F82 %30.04 in6.2 miVariable3.5 mph
5:30 AM50.0 °F42.8 °F76 %30.04 in6.2 miSW (230°)3.5 mphMostly Cloudy
6:00 AM50.0 °F41.0 °F71 %30.04 in6.2 miWSW (240°)3.5 mphScattered Clouds
6:30 AM48.2 °F41.0 °F76 %30.04 in6.2 miWSW (240°)3.5 mphScattered Clouds
7:00 AM48.2 °F41.0 °F76 %30.01 in6.2 miSW (220°)3.5 mphScattered Clouds
7:30 AM48.2 °F41.0 °F76 %30.04 in6.2 miVariable3.5 mphScattered Clouds
8:00 AM48.2 °F41.0 °F76 %30.01 in6.2 miVariable2.3 mphScattered Clouds
8:30 AM48.2 °F41.0 °F76 %30.01 in6.2 miVariable3.5 mphScattered Clouds
9:00 AM50.0 °F41.0 °F71 %30.01 in6.2 miVariable4.6 mphPartly Cloudy
9:30 AM50.0 °F41.0 °F71 %30.01 in6.2 miVariable3.5 mphPartly Cloudy
10:00 AM53.6 °F42.8 °F67 %30.04 in6.2 miSSW (210°)4.6 mphPartly Cloudy
10:30 AM55.4 °F42.8 °F63 %30.04 in6.2 miSW (220°)5.8 mphMostly Cloudy
11:00 AM57.2 °F42.8 °F59 %30.04 in6.2 miSW (220°)5.8 mphMostly Cloudy
11:30 AM57.2 °F42.8 °F59 %30.04 in6.2 miVariable5.8 mphMostly Cloudy
12:00 PM59.0 °F42.8 °F55 %30.04 in6.2 miSW (220°)5.8 mphMostly Cloudy
12:30 PM60.8 °F42.8 °F52 %30.04 in6.2 miSW (220°)8.1 mphMostly Cloudy
1:00 PM60.8 °F44.6 °F55 %30.04 in6.2 miSW (220°)9.2 mphMostly Cloudy
1:30 PM60.8 °F44.6 °F55 %30.04 in6.2 miVariable6.9 mphMostly Cloudy
2:00 PM62.6 °F44.6 °F52 %30.04 in6.2 miSW (230°)4.6 mphMostly Cloudy
2:30 PM62.6 °F44.6 °F52 %30.01 in6.2 miSW (220°)4.6 mphMostly Cloudy
3:00 PM62.6 °F44.6 °F52 %30.01 in6.2 miWSW (250°)6.9 mphMostly Cloudy
3:30 PM64.4 °F44.6 °F49 %30.01 in6.2 miWSW (250°)10.4 mphMostly Cloudy
4:00 PM62.6 °F44.6 °F52 %30.01 in6.2 miWest (270°)10.4 mphMostly Cloudy
4:30 PM62.6 °F46.4 °F55 %30.01 in6.2 miWest (280°)10.4 mphMostly Cloudy
5:00 PM62.6 °F46.4 °F55 %30.01 in6.2 miWNW (290°)11.5 mphScattered Clouds
5:30 PM64.4 °F48.2 °F56 %30.01 inWNW (290°)12.7 mphClear
6:00 PM64.4 °F48.2 °F56 %30.04 inWNW (290°)11.5 mphClear
6:30 PM62.6 °F46.4 °F55 %30.04 in6.2 miWNW (300°)10.4 mph
7:00 PM60.8 °F48.2 °F63 %30.04 in6.2 miWNW (290°)11.5 mph
7:30 PM60.8 °F50.0 °F68 %30.04 in6.2 miWNW (290°)9.2 mph
8:00 PM60.8 °F51.8 °F72 %30.04 in6.2 miWest (280°)8.1 mph
8:30 PM60.8 °F53.6 °F77 %30.06 in6.2 miWest (260°)4.6 mph
9:00 PM59.0 °F53.6 °F82 %30.06 in6.2 miWSW (240°)4.6 mph
9:30 PM55.4 °F50.0 °F82 %30.06 in6.2 miSSW (210°)3.5 mph
10:00 PM55.4 °F48.2 °F77 %30.06 in6.2 miSW (220°)3.5 mphPartly Cloudy
10:30 PM55.4 °F48.2 °F77 %30.06 in6.2 miSW (220°)3.5 mphPartly Cloudy
11:00 PM55.4 °F48.2 °F77 %30.06 in6.2 miVariable3.5 mphMostly Cloudy
11:30 PM53.6 °F48.2 °F82 %30.06 in6.2 miSSW (210°)3.5 mphPartly Cloudy
Hourly data recorded from LFBZ, located miles away from Biarritz, France







STORIES FROM OUR PARTNERS